When you browse on this site, cookies collect data to enhance your experience and personalize the content and advertising you see.
Visit our Privacy Policy to learn more. By continuing to use the site, you agree to this use of cookies and data.
  • Em Portugal
  • Lista de países
  • Para 7 dias
  • Temperatura da água
  • Mapa do tempo
  • Widgets de tempo
  • user-avatar
    Iniciar Sessão

    Previsão horária em Verhnyaya Alabashka

    Hoje, 29 Maio, Sexta-feira

    Tempo Temperatura Precipitação Vento Pressão Humidade
    00:00 +10°C° 0 mm 2 m/s 746 mmHg 83%
    01:00 +10°C° 0 mm 2 m/s 746 mmHg 84%
    02:00 +10°C° 0 mm 2 m/s 746 mmHg 84%
    03:00 +10°C° 0 mm 3 m/s 747 mmHg 84%
    04:00 +10°C° 0 mm 3 m/s 747 mmHg 85%
    05:00 +12°C° 0 mm 3 m/s 747 mmHg 77%
    06:00 +13°C° 0 mm 3 m/s 747 mmHg 69%
    07:00 +15°C° 0 mm 4 m/s 747 mmHg 61%
    08:00 +17°C° 0 mm 4 m/s 747 mmHg 56%
    09:00 +19°C° 0 mm 4 m/s 747 mmHg 50%
    10:00 +20°C° 0 mm 4 m/s 747 mmHg 45%
    11:00 +21°C° 0 mm 5 m/s 746 mmHg 44%
    12:00 +21°C° 0 mm 5 m/s 746 mmHg 43%
    13:00 +22°C° 0 mm 5 m/s 746 mmHg 41%
    14:00 +22°C° 0 mm 4 m/s 746 mmHg 42%
    15:00 +22°C° 0 mm 4 m/s 746 mmHg 42%
    16:00 +22°C° 0 mm 4 m/s 746 mmHg 42%
    17:00 +20°C° 0 mm 4 m/s 746 mmHg 48%
    18:00 +19°C° 0 mm 3 m/s 746 mmHg 54%
    19:00 +18°C° 0 mm 2 m/s 746 mmHg 60%
    20:00 +17°C° 0 mm 2 m/s 746 mmHg 64%
    21:00 +16°C° 0 mm 2 m/s 746 mmHg 68%
    22:00 +15°C° 0 mm 2 m/s 746 mmHg 71%
    23:00 +14°C° 0 mm 2 m/s 746 mmHg 74%

    Amanhã, 30 Maio, Sábado

    Tempo Temperatura Precipitação Vento Pressão Humidade
    00:00 +13°C° 0 mm 2 m/s 746 mmHg 78%
    01:00 +12°C° 0 mm 2 m/s 746 mmHg 81%
    02:00 +12°C° 0 mm 2 m/s 746 mmHg 80%
    03:00 +12°C° 0 mm 2 m/s 746 mmHg 80%
    04:00 +12°C° 0 mm 2 m/s 746 mmHg 79%
    05:00 +13°C° 0 mm 3 m/s 746 mmHg 74%
    06:00 +16°C° 0 mm 3 m/s 745 mmHg 68%
    07:00 +18°C° 0 mm 3 m/s 745 mmHg 63%
    08:00 +19°C° 0.1 mm 4 m/s 745 mmHg 61%
    09:00 +19°C° 0.1 mm 4 m/s 745 mmHg 59%
    10:00 +20°C° 0.1 mm 4 m/s 745 mmHg 56%
    11:00 +20°C° 0 mm 4 m/s 745 mmHg 57%
    12:00 +20°C° 0 mm 5 m/s 744 mmHg 58%
    13:00 +20°C° 0 mm 5 m/s 744 mmHg 58%
    14:00 +19°C° 0 mm 5 m/s 744 mmHg 61%
    15:00 +19°C° 0 mm 4 m/s 744 mmHg 64%
    16:00 +18°C° 0 mm 4 m/s 744 mmHg 68%
    17:00 +17°C° 0 mm 3 m/s 744 mmHg 73%
    18:00 +16°C° 0 mm 3 m/s 743 mmHg 79%
    19:00 +15°C° 0 mm 2 m/s 743 mmHg 84%
    20:00 +14°C° 0 mm 2 m/s 743 mmHg 84%
    21:00 +14°C° 0 mm 2 m/s 744 mmHg 84%
    22:00 +14°C° 0 mm 2 m/s 744 mmHg 84%
    23:00 +13°C° 0 mm 2 m/s 744 mmHg 85%

    Depois de amanhã, 31 Maio, Domingo

    Tempo Temperatura Precipitação Vento Pressão Humidade
    00:00 +13°C° 0 mm 1 m/s 743 mmHg 86%
    01:00 +13°C° 0 mm 1 m/s 743 mmHg 86%
    02:00 +12°C° 0 mm 1 m/s 743 mmHg 86%
    03:00 +12°C° 0 mm 1 m/s 743 mmHg 86%
    04:00 +12°C° 0 mm 1 m/s 742 mmHg 87%
    05:00 +12°C° 0 mm 2 m/s 742 mmHg 82%
    06:00 +12°C° 0 mm 2 m/s 741 mmHg 77%
    07:00 +12°C° 0 mm 2 m/s 741 mmHg 73%
    08:00 +10°C° 0.3 mm 3 m/s 741 mmHg 76%
    09:00 +10°C° 0.3 mm 3 m/s 741 mmHg 80%
    10:00 +8°C° 0.3 mm 4 m/s 740 mmHg 84%
    11:00 +8°C° 1.2 mm 4 m/s 740 mmHg 87%
    12:00 +7°C° 1.2 mm 4 m/s 740 mmHg 89%
    13:00 +6°C° 1.2 mm 4 m/s 739 mmHg 92%
    14:00 +6°C° 1.5 mm 4 m/s 739 mmHg 93%
    15:00 +7°C° 1.5 mm 3 m/s 739 mmHg 94%
    16:00 +7°C° 1.5 mm 3 m/s 739 mmHg 95%
    17:00 +8°C° 0.3 mm 3 m/s 739 mmHg 94%
    18:00 +8°C° 0.3 mm 3 m/s 739 mmHg 93%
    19:00 +8°C° 0.3 mm 2 m/s 738 mmHg 93%
    20:00 +7°C° 0 mm 2 m/s 738 mmHg 94%
    21:00 +7°C° 0 mm 2 m/s 738 mmHg 95%
    22:00 +7°C° 0 mm 1 m/s 738 mmHg 96%
    23:00 +7°C° 0.5 mm 1 m/s 738 mmHg 96%

    1 Junho, Segunda-feira

    Tempo Temperatura Precipitação Vento Pressão Humidade
    00:00 +7°C° 0.5 mm 1 m/s 737 mmHg 97%
    01:00 +8°C° 0.5 mm 1 m/s 737 mmHg 97%
    02:00 +8°C° 0.6 mm 1 m/s 737 mmHg 97%
    03:00 +8°C° 0.6 mm 1 m/s 737 mmHg 97%
    04:00 +8°C° 0.6 mm 1 m/s 736 mmHg 97%
    05:00 +7°C° 0.7 mm 2 m/s 736 mmHg 95%
    06:00 +8°C° 0.7 mm 2 m/s 737 mmHg 93%
    07:00 +8°C° 0.7 mm 2 m/s 737 mmHg 92%
    08:00 +9°C° 0.3 mm 2 m/s 737 mmHg 85%
    09:00 +10°C° 0.3 mm 2 m/s 737 mmHg 78%
    10:00 +12°C° 0.3 mm 2 m/s 737 mmHg 71%
    11:00 +13°C° 0.1 mm 2 m/s 738 mmHg 67%
    12:00 +13°C° 0.1 mm 2 m/s 738 mmHg 63%
    13:00 +14°C° 0.1 mm 2 m/s 738 mmHg 59%
    14:00 +14°C° 0.1 mm 1 m/s 738 mmHg 59%
    15:00 +14°C° 0.1 mm 1 m/s 738 mmHg 58%
    16:00 +14°C° 0.1 mm 1 m/s 738 mmHg 58%
    17:00 +13°C° 0.1 mm 1 m/s 738 mmHg 66%
    18:00 +13°C° 0.1 mm 1 m/s 738 mmHg 73%
    19:00 +12°C° 0.1 mm 2 m/s 738 mmHg 81%
    20:00 +11°C° 0.1 mm 1 m/s 739 mmHg 84%
    21:00 +9°C° 0.1 mm 1 m/s 739 mmHg 88%
    22:00 +8°C° 0.1 mm 1 m/s 739 mmHg 91%
    23:00 +8°C° 0 mm 1 m/s 739 mmHg 92%

    2 Junho, Terça-feira

    Tempo Temperatura Precipitação Vento Pressão Humidade
    00:00 +8°C° 0 mm 1 m/s 739 mmHg 93%
    01:00 +7°C° 0 mm 1 m/s 739 mmHg 93%
    02:00 +8°C° 0.1 mm 1 m/s 739 mmHg 93%
    03:00 +8°C° 0.1 mm 1 m/s 739 mmHg 92%
    04:00 +7°C° 0.1 mm 0 m/s 739 mmHg 91%
    05:00 +7°C° 0.3 mm 0 m/s 740 mmHg 91%
    06:00 +8°C° 0.3 mm 0 m/s 740 mmHg 91%
    07:00 +8°C° 0.3 mm 0 m/s 740 mmHg 90%
    08:00 +9°C° 0.4 mm 0 m/s 740 mmHg 88%
    09:00 +9°C° 0.4 mm 0 m/s 740 mmHg 87%
    10:00 +10°C° 0.4 mm 0 m/s 741 mmHg 85%
    11:00 +11°C° 0.5 mm 1 m/s 741 mmHg 86%
    12:00 +10°C° 0.5 mm 1 m/s 741 mmHg 87%
    13:00 +10°C° 0.5 mm 1 m/s 741 mmHg 88%
    14:00 +11°C° 0.3 mm 1 m/s 741 mmHg 88%
    15:00 +10°C° 0.3 mm 2 m/s 741 mmHg 88%
    16:00 +10°C° 0.3 mm 2 m/s 741 mmHg 88%
    17:00 +10°C° 0.2 mm 2 m/s 741 mmHg 90%
    18:00 +9°C° 0.2 mm 3 m/s 741 mmHg 92%
    19:00 +9°C° 0.2 mm 3 m/s 741 mmHg 94%
    20:00 +8°C° 0.1 mm 2 m/s 741 mmHg 95%
    21:00 +8°C° 0.1 mm 2 m/s 741 mmHg 95%
    22:00 +8°C° 0.1 mm 1 m/s 741 mmHg 96%
    23:00 +8°C° 0 mm 1 m/s 741 mmHg 96%

    3 Junho, Quarta-feira

    Tempo Temperatura Precipitação Vento Pressão Humidade
    00:00 +8°C° 0 mm 1 m/s 741 mmHg 96%
    01:00 +6°C° 0 mm 2 m/s 741 mmHg 96%
    02:00 +6°C° 0 mm 2 m/s 741 mmHg 96%
    03:00 +6°C° 0 mm 2 m/s 741 mmHg 96%
    04:00 +6°C° 0 mm 2 m/s 740 mmHg 95%
    05:00 +7°C° 0 mm 2 m/s 741 mmHg 92%
    06:00 +8°C° 0 mm 2 m/s 741 mmHg 88%
    07:00 +10°C° 0 mm 2 m/s 741 mmHg 84%
    08:00 +12°C° 0 mm 2 m/s 741 mmHg 72%
    09:00 +14°C° 0 mm 2 m/s 741 mmHg 60%
    10:00 +16°C° 0 mm 2 m/s 740 mmHg 48%
    11:00 +16°C° 0 mm 2 m/s 740 mmHg 45%
    12:00 +17°C° 0 mm 2 m/s 740 mmHg 42%
    13:00 +18°C° 0 mm 2 m/s 740 mmHg 39%
    14:00 +19°C° 0 mm 1 m/s 740 mmHg 38%
    15:00 +19°C° 0 mm 1 m/s 740 mmHg 38%
    16:00 +19°C° 0 mm 1 m/s 740 mmHg 37%
    17:00 +18°C° 0.1 mm 1 m/s 740 mmHg 47%
    18:00 +16°C° 0.1 mm 1 m/s 740 mmHg 57%
    19:00 +14°C° 0.1 mm 2 m/s 740 mmHg 66%
    20:00 +13°C° 0.1 mm 1 m/s 740 mmHg 70%
    21:00 +12°C° 0.1 mm 1 m/s 740 mmHg 74%
    22:00 +10°C° 0.1 mm 1 m/s 740 mmHg 79%
    23:00 +10°C° 0 mm 1 m/s 740 mmHg 82%
    Mostrar mais